Theta_e
343 342 341 341 341 341 340 340 339 338 336 336 337 336 335 335 335 335 335 335 335 335 336 335 335 336 337 337 338 339 340 343 344 344 345 346 346 347 347 345 344 343
344 342 342 341 341 340 340 340 339 338 336 335 337 336 335 335 335 335 334 334 334 333 335 335 334 334 336 336 337 337 339 341 343 344 344 345 346 347 347 346 345 343
345 343 342 341 339 338 338 338 339 338 336 336 336 337 336 336 335 334 334 335 334 333 334 336 335 335 335 337 337 337 337 339 340 342 343 343 344 345 346 346 346 344
347 344 342 340 339 338 338 338 338 338 337 336 337 337 337 336 335 335 334 334 334 333 333 335 336 336 337 337 337 337 337 336 338 340 342 342 342 343 344 345 345 344
348 346 343 340 339 338 337 338 338 337 337 336 336 337 337 337 335 334 333 333 334 333 332 334 336 337 338 337 337 337 336 336 337 338 339 339 339 340 341 342 343 343
348 348 347 343 340 339 338 337 337 337 337 337 336 336 337 336 335 334 332 330 331 333 332 332 334 335 336 336 336 336 337 336 336 337 337 337 337 338 339 339 340 341
349 349 348 346 344 342 339 336 336 336 336 336 336 337 337 336 335 334 331 329 330 332 333 332 333 334 334 335 336 336 336 336 336 337 337 337 337 337 337 338 338 339
349 349 349 348 347 345 342 338 337 336 335 337 336 336 336 336 335 333 332 330 329 331 333 334 333 334 334 334 335 335 336 337 337 337 337 337 337 337 336 336 337 337
349 349 349 349 348 348 345 342 339 338 337 336 335 335 335 335 334 333 331 330 329 329 331 333 333 333 333 333 334 334 335 336 336 336 335 335 336 336 335 336 335 336
349 349 349 349 349 348 347 345 343 341 339 337 337 336 335 334 333 332 331 330 330 329 330 331 332 333 332 333 333 333 334 334 334 334 334 333 333 333 333 334 334 334
349 349 349 349 349 348 348 347 346 345 342 340 338 337 336 335 333 332 331 330 330 329 330 331 332 332 333 333 333 333 333 334 333 333 333 332 331 332 332 331 332 332
349 349 349 349 349 349 348 348 348 347 345 343 340 338 336 335 334 333 331 330 330 329 329 329 330 331 332 332 332 332 332 332 333 333 333 333 332 331 331 331 331 331
349 349 348 348 349 348 349 348 348 348 347 344 340 339 336 335 334 333 332 331 330 330 330 330 330 329 330 331 331 331 330 330 331 332 332 332 332 332 332 331 332 331
349 349 349 348 348 348 348 348 349 348 347 346 342 340 336 335 334 334 332 332 331 330 330 331 330 330 330 330 329 329 329 329 329 330 331 331 331 332 333 333 332 332
349 349 348 349 349 348 348 349 349 348 348 347 345 341 338 335 334 333 333 332 332 331 331 331 331 330 329 330 329 328 329 329 329 329 330 330 331 332 332 333 333 332
349 349 349 349 349 348 349 348 348 349 349 349 347 344 342 339 337 336 335 333 332 332 331 332 331 330 330 329 329 329 329 329 329 329 330 330 330 331 332 332 333 333
350 350 349 350 349 349 349 349 349 349 349 349 348 347 345 343 341 339 337 335 333 333 332 332 331 330 330 330 330 329 330 329 329 330 329 330 330 331 332 332 333 333
350 350 350 350 349 350 349 349 349 350 350 350 349 349 347 346 344 341 338 336 335 334 333 332 331 330 330 330 330 330 329 330 330 330 330 330 330 331 331 332 333 333
350 350 350 350 350 349 349 350 350 350 350 350 350 349 350 348 346 344 340 338 336 335 334 332 332 331 330 330 330 330 330 330 331 331 331 330 331 331 332 333 333 335
351 351 350 350 349 350 350 350 351 351 351 351 351 352 352 351 350 347 345 342 339 336 334 333 332 332 331 331 331 331 331 332 332 333 332 332 332 333 333 334 335 336
351 351 351 350 350 350 351 351 351 351 352 352 352 353 354 354 354 352 351 347 344 341 338 335 333 332 332 332 332 332 333 335 335 334 334 334 334 334 335 335 336 337
351 351 351 351 351 352 352 352 352 352 353 353 353 354 355 356 356 356 355 353 352 350 347 341 334 333 333 332 333 334 335 336 336 336 336 336 335 335 336 337 338 340
350 351 351 351 352 352 352 352 353 353 354 354 355 356 356 357 357 357 358 357 356 355 352 346 340 337 336 335 335 338 339 338 338 337 337 337 336 336 337 338 340 341
349 350 350 351 352 353 352 354 354 355 356 356 356 357 358 359 359 359 359 359 358 357 355 351 347 343 342 342 343 344 343 342 341 340 340 339 338 338 339 340 341 343
348 350 350 351 352 353 353 355 356 357 358 358 358 359 359 360 360 360 360 360 360 359 359 357 354 352 351 350 349 350 349 347 346 344 343 342 340 340 340 341 342 344
349 350 351 351 353 354 355 357 358 358 359 359 360 360 360 360 360 361 361 362 361 361 360 360 359 357 356 356 354 353 352 350 349 348 347 345 344 343 343 344 345 346
Wind_Speed
39 39 39 38 37 36 35 34 32 32 30 28 26 25 23 21 21 21 21 20 20 19 19 19 19 19 18 17 17 17 17 17 17 16 16 15 14 14 13 13 13 14
37 39 39 39 38 36 35 34 33 32 30 29 27 25 23 22 22 21 21 21 21 20 20 20 20 20 20 19 18 18 18 18 18 17 17 16 15 15 14 14 14 14
36 38 38 38 37 36 35 34 33 32 31 29 28 26 25 23 22 22 22 22 21 21 21 21 21 20 20 20 20 20 20 20 18 17 17 16 16 15 15 15 15 14
36 36 37 37 36 35 34 35 34 33 32 31 29 27 26 24 23 22 22 21 21 21 22 23 22 21 21 21 21 21 21 21 20 18 18 17 16 16 16 15 15 15
36 35 35 35 35 35 34 34 34 33 32 32 30 29 27 26 24 23 21 20 20 20 23 24 23 22 22 21 22 22 21 21 21 20 19 18 17 16 16 16 16 16
37 36 34 35 35 35 35 34 33 33 33 32 31 30 29 27 25 24 22 20 19 20 22 25 24 23 23 23 23 23 22 22 22 21 21 20 19 18 17 17 17 17
39 37 35 34 35 35 35 34 34 33 33 32 32 31 30 29 27 25 24 22 21 21 22 24 24 23 23 23 23 24 23 23 23 23 23 22 21 20 19 18 18 18
40 38 36 35 35 35 35 35 35 34 34 33 33 32 31 31 29 27 26 24 24 23 23 24 24 23 23 23 23 24 24 24 24 23 23 22 22 21 20 20 19 19
41 40 38 36 35 35 34 34 35 34 34 34 33 32 32 31 30 29 27 26 26 25 25 25 25 25 24 24 24 24 25 25 24 24 24 23 23 22 21 21 21 21
43 41 39 38 36 35 33 33 33 33 34 34 33 33 32 32 31 30 29 28 28 28 27 27 27 26 25 25 25 25 26 26 25 25 24 24 23 23 22 22 22 22
44 42 41 39 37 35 34 32 32 32 32 33 33 33 33 33 32 31 31 30 30 29 29 28 27 27 27 27 26 25 26 26 26 26 25 25 24 24 24 23 23 22
44 43 42 40 38 36 34 33 32 31 31 32 32 33 33 33 33 33 32 31 31 30 30 29 29 28 29 29 28 28 27 27 28 27 27 27 26 26 26 25 25 24
45 43 42 40 38 36 34 33 32 31 31 31 31 32 33 33 34 34 33 32 32 31 31 31 30 30 31 31 31 30 30 30 30 30 30 29 29 28 28 28 27 27
44 43 41 39 37 35 34 32 32 31 31 30 31 32 33 33 34 34 34 33 33 33 33 33 32 32 32 32 32 31 31 31 31 31 31 31 31 30 30 30 29 29
44 43 42 40 38 36 35 33 32 31 31 31 32 32 33 33 34 34 34 35 35 35 35 35 35 34 34 33 32 32 32 32 32 32 32 32 32 32 31 31 31 30
44 44 43 42 41 39 36 34 32 31 31 31 32 33 33 34 34 35 35 36 36 35 35 36 36 36 35 34 33 33 33 32 32 32 32 33 33 33 33 32 32 32
45 44 44 43 41 39 37 35 34 33 32 32 31 32 33 34 34 35 36 36 36 36 36 37 37 36 35 34 34 33 33 33 33 33 33 33 33 33 33 33 33 33
45 44 44 42 41 40 38 36 35 35 34 33 32 32 32 33 35 36 36 36 36 37 37 37 37 36 35 35 34 34 33 33 33 33 33 34 34 34 34 34 34 33
44 44 43 42 41 39 38 37 37 37 36 34 33 32 31 33 34 35 36 36 36 37 37 37 37 36 35 35 35 35 34 34 34 34 34 34 34 34 34 34 34 34
44 43 43 41 40 38 38 38 38 37 36 35 34 33 34 34 33 34 35 35 36 37 37 37 37 36 36 35 35 35 34 34 33 34 34 34 34 34 34 34 33 33
43 42 41 40 39 39 39 39 38 37 36 35 35 35 35 34 33 34 34 34 34 35 36 37 37 36 35 35 35 35 34 33 33 33 34 34 33 33 33 33 33 32
41 41 40 39 38 39 39 39 38 37 36 35 35 35 35 34 34 34 34 34 34 34 35 36 36 35 35 35 35 34 33 33 33 33 33 33 32 32 32 32 31 31
38 38 37 37 37 38 38 37 35 35 34 34 34 35 34 34 34 34 33 33 33 33 34 35 34 33 33 33 33 32 32 33 33 33 33 32 31 30 30 30 30 30
35 34 34 34 35 35 34 32 31 31 31 31 33 32 32 32 31 31 32 32 32 32 32 33 33 31 31 31 31 30 31 31 31 31 31 30 29 29 28 29 29 29
31 31 31 33 33 32 30 29 29 29 28 30 31 31 30 29 30 31 31 30 29 29 29 29 29 28 28 28 28 28 28 29 29 30 30 29 28 27 27 28 28 27
31 31 30 31 30 29 28 28 28 28 29 30 31 30 29 29 30 31 31 29 28 28 27 26 26 25 25 25 24 25 25 26 27 29 29 27 26 26 26 27 27 26
Wind_Direction
228 229 230 232 233 234 235 235 235 234 234 234 234 236 237 237 236 234 234 234 233 234 234 234 234 237 241 242 243 245 248 251 253 253 253 254 257 258 259 260 259 257
228 229 231 233 234 234 235 234 235 235 234 234 235 238 239 241 241 239 239 239 238 237 236 235 234 236 241 243 244 246 248 251 253 253 254 256 258 259 259 262 262 263
228 229 231 232 233 234 234 234 234 234 234 235 235 238 239 240 242 242 241 242 242 240 237 236 234 235 239 241 243 246 248 251 253 254 255 257 259 260 261 262 262 263
228 229 230 232 233 234 234 235 235 234 234 233 234 236 238 240 241 242 242 242 242 239 235 233 233 233 236 239 242 246 248 250 252 253 254 254 256 258 260 261 262 263
229 230 231 232 233 234 235 236 236 235 234 233 233 234 236 238 239 240 241 240 239 237 232 230 230 231 234 236 240 245 247 249 250 251 253 253 253 255 257 259 261 261
230 230 231 232 233 234 235 235 235 235 235 234 234 235 236 237 238 239 239 238 237 235 230 228 230 232 233 234 237 242 245 247 249 250 252 253 253 254 254 256 258 259
230 231 231 232 233 234 235 234 235 236 236 236 236 236 236 237 239 239 238 236 235 234 230 229 232 233 232 233 236 240 243 245 247 248 250 253 253 253 253 254 256 258
231 231 232 233 234 235 235 235 235 236 237 238 238 238 238 239 240 240 238 236 234 233 231 230 232 233 234 235 237 240 242 244 246 247 249 251 253 254 254 255 256 257
231 232 232 234 235 236 237 236 236 237 238 240 240 240 240 240 240 239 238 236 235 234 233 233 234 236 239 240 241 241 242 244 246 248 250 252 254 256 257 258 257 257
231 232 232 233 235 236 238 238 239 239 240 241 242 242 242 241 240 239 238 237 236 235 235 235 236 238 241 242 242 243 243 245 246 248 251 253 254 257 258 259 260 260
231 232 233 233 234 236 237 239 240 241 242 242 243 243 243 241 240 239 238 237 236 235 235 236 237 239 240 241 242 243 244 246 247 249 251 253 255 257 258 259 261 263
231 232 233 234 235 236 237 238 240 241 242 242 243 244 243 243 242 241 240 238 237 236 237 237 239 240 242 243 245 246 247 248 249 250 252 254 256 257 258 259 261 263
231 232 234 234 235 236 237 238 240 241 242 242 242 243 243 243 243 242 242 240 239 239 239 240 242 243 245 246 248 249 250 250 251 252 254 256 257 258 258 259 260 261
231 233 234 234 235 236 237 238 239 240 241 242 242 242 241 242 243 243 243 243 242 242 243 245 246 247 247 248 249 250 251 252 252 254 256 258 259 260 260 260 260 261
231 232 233 234 234 235 236 237 238 239 240 241 241 240 240 240 241 242 243 244 245 245 247 248 249 249 248 248 249 249 250 252 254 256 258 260 262 263 264 263 263 263
231 232 233 233 234 234 235 235 236 238 239 241 242 241 241 241 241 242 243 243 245 246 247 249 249 249 248 248 249 250 252 254 256 258 260 262 264 265 266 266 266 267
230 231 232 233 234 234 235 235 236 237 239 241 243 243 243 243 243 243 243 243 244 245 247 249 249 249 249 249 250 251 253 255 257 259 261 262 264 265 266 267 269 270
230 231 232 233 234 235 235 236 236 237 239 240 242 243 244 244 243 243 242 242 243 245 247 248 249 249 250 251 252 253 254 256 258 260 262 263 265 266 267 269 270 272
230 231 233 234 235 236 237 237 238 239 239 239 240 241 243 243 244 243 243 242 243 244 245 247 248 249 250 251 253 254 256 258 259 261 263 265 266 268 270 271 273 275
231 232 234 235 236 237 238 238 239 240 241 241 241 241 242 243 243 244 244 243 243 243 244 246 247 247 249 251 252 255 257 259 261 263 265 267 268 270 272 273 274 276
232 233 235 237 237 238 238 239 240 241 242 243 243 243 243 243 244 245 245 245 244 245 246 246 246 246 248 250 252 255 258 260 262 263 265 266 268 269 271 272 274 276
232 234 235 237 238 238 239 240 241 242 243 243 244 245 245 246 246 246 246 246 246 247 248 247 246 246 248 250 252 255 258 260 261 262 264 265 266 267 269 270 272 274
234 235 236 237 238 238 239 241 242 243 243 244 244 245 245 245 246 247 247 247 247 247 247 247 246 247 249 250 253 256 258 260 261 262 264 265 266 266 268 269 270 272
235 236 237 237 237 238 240 241 242 242 243 243 244 244 245 246 247 248 248 249 248 247 248 249 248 249 250 252 254 257 258 260 261 263 264 265 266 266 267 268 269 271
236 236 236 237 237 238 240 240 241 242 242 243 244 245 246 246 247 249 249 250 250 250 251 253 253 253 253 253 255 256 258 259 261 262 263 264 265 266 268 269 270 273
236 236 237 237 238 240 242 243 243 243 244 244 245 246 247 247 248 249 250 251 252 253 254 255 256 256 256 256 257 257 257 259 260 261 262 264 266 268 270 272 274 277